Home   Weather   Stonewall   Past weeks

Flag for Canada Past Weather in Stonewall, Manitoba, Canada — Yesterday and Last 2 Weeks

Now
57 °F

Passing clouds.


Feels Like: 57 °F
Forecast: 41 / 60 °F
Wind: 2 mph from North

Location: Winnipeg Int. Airportman.

Current Time: Sep 28, 2016 at 1:48:28 PM

Latest Report: Sep 28, 2016 at 1:00 PM


Visibility: 15 mi

Pressure: 30.35 "Hg

Humidity: 63%

Dew Point: 45 °F

Location of StonewallLocation

Past Weather in Stonewall — Graph

°F

Stonewall Temperature Yesterday

Maximum temperature yesterday: 55 °F (at 1:00 PM)
Minimum temperature yesterday: 45 °F (at 1:00 AM)
Average temperature yesterday: 49 °F

High & Low Weather Summary for the Past Weeks

 TemperatureHumidityPressure
High75 °F (Sep 18, 6:00 PM)100% (Sep 16, 5:55 AM)30.34 "Hg (Sep 16, 5:55 AM)
Low36 °F (Sep 28, 4:00 AM)34% (Sep 22, 5:00 PM)29.46 "Hg (Sep 18, 6:00 PM)
Average56 °F73%29.96 "Hg
* Reported Sep 13 12:00 PM — Sep 28 12:00 PM, Stonewall, Weather by CustomWeather, © 2016

Note: Actual official high and low records may vary slightly from our data, if they occured in-between our weather recording intervals... More about our weather records

Advertising

Stonewall Weather History for the Previous 24 Hours

Scroll right to see more
 ConditionsComfort  
Time TempWeatherWind HumidityBarometerVisibility
12:00 PM
Wed, Sep 28
55 °FPassing clouds.3 mph67%30.34 "Hg15 mi
11:00 AM54 °FPassing clouds.No wind67%30.34 "Hg15 mi
10:00 AM50 °FPassing clouds.No wind88%30.33 "Hg15 mi
9:00 AM45 °FPassing clouds.No wind93%30.30 "Hg15 mi
8:00 AM36 °FSunny.No wind100%30.29 "Hg15 mi
7:00 AM36 °FClear.2 mph100%30.26 "Hg15 mi
6:00 AM37 °FClear.3 mph93%30.23 "Hg15 mi
5:00 AM36 °FClear.3 mph100%30.20 "Hg15 mi
4:00 AM36 °FClear.3 mph100%30.18 "Hg15 mi
3:00 AM37 °FClear.2 mph100%30.16 "Hg15 mi
2:00 AM37 °FClear.5 mph100%30.14 "Hg15 mi
1:00 AM39 °FPassing clouds.5 mph93%30.13 "Hg15 mi
12:00 AM43 °FPassing clouds.2 mph93%30.11 "Hg15 mi
11:00 PM
Tue, Sep 27
46 °FPassing clouds.5 mph87%30.09 "Hg15 mi
10:00 PM48 °FPassing clouds.9 mph82%30.06 "Hg15 mi
9:00 PM50 °FPassing clouds.9 mph76%30.04 "Hg15 mi
8:00 PM50 °FPassing clouds.9 mph76%30.03 "Hg15 mi
7:00 PM52 °FPartly sunny.12 mph77%30.01 "Hg15 mi
6:00 PM52 °FPartly sunny.15 mph77%29.99 "Hg15 mi
5:00 PM54 °FPartly sunny.14 mph72%29.96 "Hg15 mi
4:00 PM54 °FPartly sunny.14 mph72%29.95 "Hg15 mi
3:00 PM55 °FPartly sunny.15 mph67%29.93 "Hg15 mi
2:00 PM55 °FPartly sunny.18 mph63%29.91 "Hg15 mi
1:00 PM55 °FOvercast.17 mph63%29.92 "Hg15 mi
Weather by CustomWeather, © 2016

See weather overviewHow to use our weather pages